Darstellungsparameter: Aktuell verwendete Einstellungen:
Skalierung der Graphiken ... ?
xyx+y,   Skalierungsfaktor:      Skalierung: Modus: x, Faktor: 1
Darstellungszeitraum ... ?
Vom - - bis: - -   Zeitraum: 07.09.2019 - 08.09.2019
Min/Max/Avg-Anzeige ... ?
Zeige MMA aktuell
Zeige MMA Monat
Zeige MMA alles
Zeige --A aktuell
Zeige --A Monat
Zeige --A alles
Keine MMA-Anzeige
MMA:
Keine MMA-Graphiken
MMA-Basis: 07.09.2019 - 08.09.2019
Quicknavigation für Darstellung... ?
Tage:      1T, 2T, 3T, 5T -1T -2T -3T -5T +1T +2T +3T +5T
Wochen: 1W, 2W, 3W -1W -2W -3W +1W +2W +3W
Monate: 1M, 3M, 6M -1M -3M -6M +1M +3M +6M
Jahre:    1J, 3J, 5J, 10J -1J -3J -5J -10J +1J +3J +5J +10J
Nutze für die Darstellung ... ?
Originaldaten oder Mittelwerte auf ...
Stundenbasis Tagesbasis Wochenbasis
Monatsbasis Jahresbasis      Datenbasis: Original-Daten
Darstellen als:
Statistik (Auto) Statistik J:M      Darstellung:
Zur Graphik,    zurück zur Übersicht aller Sensoren.
 
Tabellarische Datenbersicht: ?
 
Sensor: Nr:Datum:Temp:Feuchte:Taupunkt:
Aussen-T/F 1 07-09-2019 00:00:00 12.4 C 74 % 7.9 C
2 07-09-2019 00:05:00 12.3 C 73 % 7.61 C
3 07-09-2019 00:10:00 12.3 C 73 % 7.61 C
4 07-09-2019 00:15:00 12.2 C 74 % 7.71 C
5 07-09-2019 00:20:00 12.2 C 73 % 7.51 C
6 07-09-2019 00:25:00 12.2 C 74 % 7.71 C
7 07-09-2019 00:30:00 12.2 C 74 % 7.71 C
8 07-09-2019 00:35:00 12.2 C 74 % 7.71 C
9 07-09-2019 00:40:00 12.2 C 75 % 7.91 C
10 07-09-2019 00:45:00 12.2 C 74 % 7.71 C
11 07-09-2019 00:50:00 12.3 C 74 % 7.8 C
12 07-09-2019 00:55:00 12.4 C 73 % 7.7 C
13 07-09-2019 01:00:00 12.6 C 73 % 7.89 C
14 07-09-2019 01:05:00 12.6 C 73 % 7.89 C
15 07-09-2019 01:10:00 12.6 C 73 % 7.89 C
16 07-09-2019 01:15:00 12.6 C 73 % 7.89 C
17 07-09-2019 01:20:00 12.6 C 73 % 7.89 C
18 07-09-2019 01:25:00 12.5 C 74 % 8 C
19 07-09-2019 01:30:00 12.4 C 74 % 7.9 C
20 07-09-2019 01:35:00 12.3 C 74 % 7.8 C
21 07-09-2019 01:40:00 12.3 C 74 % 7.8 C
22 07-09-2019 01:45:00 12.2 C 74 % 7.71 C
23 07-09-2019 01:50:00 12.2 C 74 % 7.71 C
24 07-09-2019 01:55:00 12.1 C 75 % 7.81 C
25 07-09-2019 02:00:00 12.1 C 75 % 7.81 C
Sensor: Nr:Datum:Temp:Feuchte:Taupunkt:
Aussen-T/F 26 07-09-2019 02:05:00 12.1 C 75 % 7.81 C
27 07-09-2019 02:10:00 12.1 C 75 % 7.81 C
28 07-09-2019 02:15:00 12.2 C 75 % 7.91 C
29 07-09-2019 02:20:00 12.2 C 75 % 7.91 C
30 07-09-2019 02:25:00 12.2 C 75 % 7.91 C
31 07-09-2019 02:30:00 12.2 C 75 % 7.91 C
32 07-09-2019 02:35:00 12.2 C 75 % 7.91 C
33 07-09-2019 02:40:00 12.2 C 75 % 7.91 C
34 07-09-2019 02:45:00 12.2 C 75 % 7.91 C
35 07-09-2019 02:50:00 12.3 C 75 % 8 C
36 07-09-2019 02:55:00 12.3 C 75 % 8 C
37 07-09-2019 03:00:00 12.3 C 75 % 8 C
38 07-09-2019 03:05:00 12.3 C 75 % 8 C
39 07-09-2019 03:10:00 12.3 C 75 % 8 C
40 07-09-2019 03:15:00 12.2 C 75 % 7.91 C
41 07-09-2019 03:20:00 12.3 C 75 % 8 C
42 07-09-2019 03:25:00 12.4 C 75 % 8.1 C
43 07-09-2019 03:30:00 12.4 C 75 % 8.1 C
44 07-09-2019 03:35:00 12.4 C 75 % 8.1 C
45 07-09-2019 03:40:00 12.4 C 74 % 7.9 C
46 07-09-2019 03:45:00 12.4 C 75 % 8.1 C
47 07-09-2019 03:50:00 12.5 C 74 % 8 C
48 07-09-2019 03:55:00 12.6 C 74 % 8.09 C
49 07-09-2019 04:00:00 12.7 C 74 % 8.19 C
50 07-09-2019 04:05:00 12.7 C 75 % 8.39 C
Sensor: Nr:Datum:Temp:Feuchte:Taupunkt:
Aussen-T/F 51 07-09-2019 04:10:00 12.7 C 74 % 8.19 C
52 07-09-2019 04:15:00 12.7 C 75 % 8.39 C
53 07-09-2019 04:20:00 12.6 C 75 % 8.29 C
54 07-09-2019 04:25:00 12.6 C 75 % 8.29 C
55 07-09-2019 04:30:00 12.6 C 74 % 8.09 C
56 07-09-2019 04:35:00 12.7 C 74 % 8.19 C
57 07-09-2019 04:40:00 12.8 C 74 % 8.29 C
58 07-09-2019 04:45:00 12.8 C 74 % 8.29 C
59 07-09-2019 04:50:00 12.7 C 73 % 7.99 C
60 07-09-2019 04:55:00 12.7 C 74 % 8.19 C
61 07-09-2019 05:00:00 12.7 C 74 % 8.19 C
62 07-09-2019 05:05:00 12.8 C 73 % 8.09 C
63 07-09-2019 05:10:00 12.8 C 74 % 8.29 C
64 07-09-2019 05:15:00 12.8 C 74 % 8.29 C
65 07-09-2019 05:20:00 12.7 C 74 % 8.19 C
66 07-09-2019 05:25:00 12.7 C 74 % 8.19 C
67 07-09-2019 05:30:00 12.7 C 75 % 8.39 C
68 07-09-2019 05:35:00 12.6 C 75 % 8.29 C
69 07-09-2019 05:40:00 12.6 C 76 % 8.49 C
70 07-09-2019 05:45:00 12.5 C 76 % 8.39 C
71 07-09-2019 05:50:00 12.4 C 75 % 8.1 C
72 07-09-2019 05:55:00 12.4 C 75 % 8.1 C
73 07-09-2019 06:00:00 12.4 C 76 % 8.29 C
74 07-09-2019 06:05:00 12.4 C 76 % 8.29 C
75 07-09-2019 06:10:00 12.3 C 76 % 8.2 C
Sensor: Nr:Datum:Temp:Feuchte:Taupunkt:
Aussen-T/F 76 07-09-2019 06:15:00 12.3 C 76 % 8.2 C
77 07-09-2019 06:20:00 12.3 C 76 % 8.2 C
78 07-09-2019 06:25:00 12.3 C 77 % 8.39 C
79 07-09-2019 06:30:00 12.3 C 77 % 8.39 C
80 07-09-2019 06:35:00 12.3 C 78 % 8.58 C
81 07-09-2019 06:40:00 12.3 C 77 % 8.39 C
82 07-09-2019 06:45:00 12.2 C 78 % 8.48 C
83 07-09-2019 06:50:00 12.2 C 78 % 8.48 C
84 07-09-2019 06:55:00 12.2 C 78 % 8.48 C
85 07-09-2019 07:00:00 12.2 C 79 % 8.67 C
86 07-09-2019 07:05:00 12.2 C 80 % 8.86 C
87 07-09-2019 07:10:00 12.2 C 82 % 9.22 C
88 07-09-2019 07:15:00 12.1 C 83 % 9.3 C
89 07-09-2019 07:20:00 12.1 C 84 % 9.48 C
90 07-09-2019 07:25:00 11.9 C 85 % 9.46 C
91 07-09-2019 07:30:00 11.9 C 86 % 9.64 C
92 07-09-2019 07:35:00 11.8 C 86 % 9.54 C
93 07-09-2019 07:40:00 11.8 C 87 % 9.71 C
94 07-09-2019 07:45:00 11.8 C 88 % 9.88 C
95 07-09-2019 07:50:00 11.8 C 88 % 9.88 C
96 07-09-2019 07:55:00 11.8 C 89 % 10.05 C
97 07-09-2019 08:00:00 11.8 C 89 % 10.05 C
98 07-09-2019 08:05:00 11.7 C 89 % 9.95 C
99 07-09-2019 08:10:00 11.7 C 89 % 9.95 C
100 07-09-2019 08:15:00 11.8 C 90 % 10.21 C
Sensor: Nr:Datum:Temp:Feuchte:Taupunkt:
Aussen-T/F 101 07-09-2019 08:20:00 11.8 C 90 % 10.21 C
102 07-09-2019 08:25:00 11.8 C 91 % 10.38 C
103 07-09-2019 08:30:00 11.8 C 91 % 10.38 C
104 07-09-2019 08:35:00 11.8 C 91 % 10.38 C
105 07-09-2019 08:40:00 11.8 C 91 % 10.38 C
106 07-09-2019 08:45:00 11.8 C 91 % 10.38 C
107 07-09-2019 08:50:00 11.8 C 92 % 10.54 C
108 07-09-2019 08:55:00 11.8 C 92 % 10.54 C
109 07-09-2019 09:00:00 11.8 C 92 % 10.54 C
110 07-09-2019 09:05:00 11.8 C 92 % 10.54 C
111 07-09-2019 09:10:00 11.8 C 92 % 10.54 C
112 07-09-2019 09:15:00 11.8 C 93 % 10.71 C
113 07-09-2019 09:20:00 11.8 C 93 % 10.71 C
114 07-09-2019 09:25:00 11.8 C 93 % 10.71 C
115 07-09-2019 09:30:00 11.8 C 93 % 10.71 C
116 07-09-2019 09:35:00 11.8 C 93 % 10.71 C
117 07-09-2019 09:40:00 11.8 C 93 % 10.71 C
118 07-09-2019 09:45:00 11.8 C 93 % 10.71 C
119 07-09-2019 09:50:00 11.8 C 94 % 10.87 C
120 07-09-2019 09:55:00 11.9 C 94 % 10.97 C
121 07-09-2019 10:00:00 12 C 94 % 11.07 C
122 07-09-2019 10:05:00 12.1 C 94 % 11.16 C
123 07-09-2019 10:10:00 12.1 C 94 % 11.16 C
124 07-09-2019 10:15:00 12.2 C 94 % 11.26 C
125 07-09-2019 10:20:00 12.2 C 94 % 11.26 C
Sensor: Nr:Datum:Temp:Feuchte:Taupunkt:
Aussen-T/F 126 07-09-2019 10:25:00 12.2 C 94 % 11.26 C
127 07-09-2019 10:30:00 12.3 C 94 % 11.36 C
128 07-09-2019 10:35:00 12.3 C 94 % 11.36 C
129 07-09-2019 10:40:00 12.3 C 94 % 11.36 C
130 07-09-2019 10:45:00 12.3 C 94 % 11.36 C
131 07-09-2019 10:50:00 12.3 C 94 % 11.36 C
132 07-09-2019 10:55:00 12.4 C 94 % 11.46 C
133 07-09-2019 11:00:00 12.4 C 94 % 11.46 C
134 07-09-2019 11:05:00 12.4 C 94 % 11.46 C
135 07-09-2019 11:10:00 12.6 C 94 % 11.66 C
136 07-09-2019 11:15:00 12.7 C 94 % 11.76 C
137 07-09-2019 11:20:00 12.7 C 94 % 11.76 C
138 07-09-2019 11:25:00 12.8 C 94 % 11.86 C
139 07-09-2019 11:30:00 12.8 C 93 % 11.7 C
140 07-09-2019 11:35:00 12.9 C 93 % 11.8 C
141 07-09-2019 11:40:00 12.9 C 94 % 11.96 C
142 07-09-2019 11:45:00 13.1 C 94 % 12.16 C
143 07-09-2019 11:50:00 13.2 C 94 % 12.26 C
144 07-09-2019 11:55:00 13.2 C 94 % 12.26 C
145 07-09-2019 12:00:00 13.3 C 94 % 12.36 C
146 07-09-2019 12:05:00 13.3 C 94 % 12.36 C
147 07-09-2019 12:10:00 13.3 C 94 % 12.36 C
148 07-09-2019 12:15:00 13.3 C 93 % 12.19 C
149 07-09-2019 12:20:00 13.3 C 94 % 12.36 C
150 07-09-2019 12:25:00 13.4 C 94 % 12.45 C
Sensor: Nr:Datum:Temp:Feuchte:Taupunkt:
Aussen-T/F 151 07-09-2019 12:30:00 13.4 C 93 % 12.29 C
152 07-09-2019 12:35:00 13.5 C 93 % 12.39 C
153 07-09-2019 12:40:00 13.6 C 93 % 12.49 C
154 07-09-2019 12:45:00 13.7 C 94 % 12.75 C
155 07-09-2019 12:50:00 13.7 C 93 % 12.59 C
156 07-09-2019 12:55:00 13.9 C 94 % 12.95 C
157 07-09-2019 13:00:00 14 C 94 % 13.05 C
158 07-09-2019 13:05:00 14.1 C 93 % 12.99 C
159 07-09-2019 13:10:00 14.1 C 93 % 12.99 C
160 07-09-2019 13:15:00 14.1 C 93 % 12.99 C
161 07-09-2019 13:20:00 14.2 C 93 % 13.08 C
162 07-09-2019 13:25:00 14.3 C 93 % 13.18 C
163 07-09-2019 13:30:00 14.3 C 92 % 13.02 C
164 07-09-2019 13:35:00 14.2 C 92 % 12.92 C
165 07-09-2019 13:40:00 14.2 C 92 % 12.92 C
166 07-09-2019 13:45:00 14.3 C 93 % 13.18 C
167 07-09-2019 13:50:00 14.3 C 92 % 13.02 C
168 07-09-2019 13:55:00 14.2 C 92 % 12.92 C
169 07-09-2019 14:00:00 14.2 C 92 % 12.92 C
170 07-09-2019 14:05:00 14.2 C 92 % 12.92 C
171 07-09-2019 14:10:00 14.2 C 92 % 12.92 C
172 07-09-2019 14:15:00 14.3 C 92 % 13.02 C
173 07-09-2019 14:20:00 14.3 C 92 % 13.02 C
174 07-09-2019 14:25:00 14.4 C 92 % 13.12 C
175 07-09-2019 14:30:00 14.5 C 92 % 13.22 C
Sensor: Nr:Datum:Temp:Feuchte:Taupunkt:
Aussen-T/F 176 07-09-2019 14:35:00 14.6 C 92 % 13.32 C
177 07-09-2019 14:40:00 14.6 C 91 % 13.15 C
178 07-09-2019 14:45:00 14.7 C 91 % 13.25 C
179 07-09-2019 14:50:00 14.8 C 91 % 13.35 C
180 07-09-2019 14:55:00 14.8 C 91 % 13.35 C
181 07-09-2019 15:00:00 14.7 C 90 % 13.08 C
182 07-09-2019 15:05:00 14.7 C 91 % 13.25 C
183 07-09-2019 15:10:00 14.8 C 91 % 13.35 C
184 07-09-2019 15:15:00 14.8 C 91 % 13.35 C
185 07-09-2019 15:20:00 14.9 C 91 % 13.44 C
186 07-09-2019 15:25:00 14.9 C 90 % 13.28 C
187 07-09-2019 15:30:00 15 C 90 % 13.37 C
188 07-09-2019 15:35:00 15 C 90 % 13.37 C
189 07-09-2019 15:40:00 15.1 C 90 % 13.47 C
190 07-09-2019 15:45:00 15.1 C 90 % 13.47 C
191 07-09-2019 15:50:00 15.2 C 90 % 13.57 C
192 07-09-2019 15:55:00 15 C 89 % 13.2 C
193 07-09-2019 16:00:00 15 C 89 % 13.2 C
194 07-09-2019 16:05:00 15.1 C 89 % 13.3 C
195 07-09-2019 16:10:00 15.1 C 88 % 13.13 C
196 07-09-2019 16:15:00 15.2 C 89 % 13.4 C
197 07-09-2019 16:20:00 15.2 C 88 % 13.23 C
198 07-09-2019 16:25:00 15.2 C 89 % 13.4 C
199 07-09-2019 16:30:00 15.3 C 91 % 13.84 C
200 07-09-2019 16:35:00 15.4 C 91 % 13.94 C
Sensor: Nr:Datum:Temp:Feuchte:Taupunkt:
Aussen-T/F 201 07-09-2019 16:40:00 15.5 C 91 % 14.04 C
202 07-09-2019 16:45:00 15.4 C 89 % 13.6 C
203 07-09-2019 16:50:00 15.3 C 89 % 13.5 C
204 07-09-2019 16:55:00 15.3 C 89 % 13.5 C
205 07-09-2019 17:00:00 15.4 C 90 % 13.77 C
206 07-09-2019 17:05:00 15.6 C 91 % 14.14 C
207 07-09-2019 17:10:00 15.7 C 91 % 14.24 C
208 07-09-2019 17:15:00 15.8 C 91 % 14.33 C
209 07-09-2019 17:20:00 15.8 C 89 % 13.99 C
210 07-09-2019 17:25:00 15.7 C 89 % 13.89 C
211 07-09-2019 17:30:00 15.3 C 87 % 13.15 C
212 07-09-2019 17:35:00 15.1 C 88 % 13.13 C
213 07-09-2019 17:40:00 14.9 C 88 % 12.93 C
214 07-09-2019 17:45:00 14.8 C 88 % 12.83 C
215 07-09-2019 17:50:00 14.8 C 89 % 13.01 C
216 07-09-2019 17:55:00 14.8 C 90 % 13.18 C
217 07-09-2019 18:00:00 14.7 C 90 % 13.08 C
218 07-09-2019 18:05:00 14.6 C 90 % 12.98 C
219 07-09-2019 18:10:00 14.4 C 90 % 12.78 C
220 07-09-2019 18:15:00 14.3 C 90 % 12.68 C
221 07-09-2019 18:20:00 14.3 C 91 % 12.85 C
222 07-09-2019 18:25:00 14.3 C 91 % 12.85 C
223 07-09-2019 18:30:00 14.3 C 91 % 12.85 C
224 07-09-2019 18:35:00 14.2 C 91 % 12.75 C
225 07-09-2019 18:40:00 14.2 C 91 % 12.75 C
Sensor: Nr:Datum:Temp:Feuchte:Taupunkt:
Aussen-T/F 226 07-09-2019 18:45:00 14.1 C 91 % 12.65 C
227 07-09-2019 18:50:00 14.1 C 91 % 12.65 C
228 07-09-2019 18:55:00 14 C 92 % 12.72 C
229 07-09-2019 19:00:00 13.9 C 92 % 12.62 C
230 07-09-2019 19:05:00 13.8 C 91 % 12.36 C
231 07-09-2019 19:10:00 13.7 C 91 % 12.26 C
232 07-09-2019 19:15:00 13.6 C 91 % 12.16 C
233 07-09-2019 19:20:00 13.5 C 91 % 12.06 C
234 07-09-2019 19:25:00 13.3 C 91 % 11.86 C
235 07-09-2019 19:30:00 13.2 C 91 % 11.76 C
236 07-09-2019 19:35:00 13.2 C 91 % 11.76 C
237 07-09-2019 19:40:00 13.1 C 92 % 11.83 C
238 07-09-2019 19:45:00 13 C 92 % 11.73 C
239 07-09-2019 19:50:00 12.9 C 92 % 11.63 C
240 07-09-2019 19:55:00 12.9 C 92 % 11.63 C
241 07-09-2019 20:00:00 12.8 C 93 % 11.7 C
242 07-09-2019 20:05:00 12.8 C 93 % 11.7 C
243 07-09-2019 20:10:00 12.8 C 93 % 11.7 C
244 07-09-2019 20:15:00 12.8 C 93 % 11.7 C
245 07-09-2019 20:20:00 12.7 C 93 % 11.6 C
246 07-09-2019 20:25:00 12.7 C 93 % 11.6 C
247 07-09-2019 20:30:00 12.6 C 93 % 11.5 C
248 07-09-2019 20:35:00 12.6 C 93 % 11.5 C
249 07-09-2019 20:40:00 12.6 C 93 % 11.5 C
250 07-09-2019 20:45:00 12.5 C 93 % 11.4 C
Sensor: Nr:Datum:Temp:Feuchte:Taupunkt:
Aussen-T/F 251 07-09-2019 20:50:00 12.4 C 93 % 11.3 C
252 07-09-2019 20:55:00 12.4 C 93 % 11.3 C
253 07-09-2019 21:00:00 12.3 C 93 % 11.2 C
254 07-09-2019 21:05:00 12.3 C 93 % 11.2 C
255 07-09-2019 21:10:00 12.2 C 93 % 11.1 C
256 07-09-2019 21:15:00 12.1 C 93 % 11 C
257 07-09-2019 21:20:00 12.1 C 93 % 11 C
258 07-09-2019 21:25:00 12 C 93 % 10.9 C
259 07-09-2019 21:30:00 11.9 C 93 % 10.81 C
260 07-09-2019 21:35:00 11.9 C 93 % 10.81 C
261 07-09-2019 21:40:00 11.9 C 94 % 10.97 C
262 07-09-2019 21:45:00 11.8 C 94 % 10.87 C
263 07-09-2019 21:50:00 11.8 C 94 % 10.87 C
264 07-09-2019 21:55:00 11.8 C 94 % 10.87 C
265 07-09-2019 22:00:00 11.8 C 94 % 10.87 C
266 07-09-2019 22:05:00 11.8 C 94 % 10.87 C
267 07-09-2019 22:10:00 11.8 C 94 % 10.87 C
268 07-09-2019 22:15:00 11.8 C 94 % 10.87 C
269 07-09-2019 22:20:00 11.8 C 94 % 10.87 C
270 07-09-2019 22:25:00 11.8 C 94 % 10.87 C
271 07-09-2019 22:30:00 11.8 C 94 % 10.87 C
272 07-09-2019 22:35:00 11.8 C 95 % 11.03 C
273 07-09-2019 22:40:00 11.8 C 95 % 11.03 C
274 07-09-2019 22:45:00 11.8 C 95 % 11.03 C
275 07-09-2019 22:50:00 11.8 C 95 % 11.03 C
Sensor: Nr:Datum:Temp:Feuchte:Taupunkt:
Aussen-T/F 276 07-09-2019 22:55:00 11.8 C 95 % 11.03 C
277 07-09-2019 23:00:00 11.8 C 95 % 11.03 C
278 07-09-2019 23:05:00 11.8 C 95 % 11.03 C
279 07-09-2019 23:10:00 11.8 C 95 % 11.03 C
280 07-09-2019 23:15:00 11.7 C 95 % 10.93 C
281 07-09-2019 23:20:00 11.7 C 95 % 10.93 C
282 07-09-2019 23:25:00 11.7 C 95 % 10.93 C
283 07-09-2019 23:30:00 11.7 C 95 % 10.93 C
284 07-09-2019 23:35:00 11.7 C 95 % 10.93 C
285 07-09-2019 23:40:00 11.7 C 95 % 10.93 C
286 07-09-2019 23:45:00 11.7 C 95 % 10.93 C
287 07-09-2019 23:50:00 11.7 C 95 % 10.93 C
288 07-09-2019 23:55:00 11.7 C 95 % 10.93 C
289 08-09-2019 00:00:00 11.7 C 95 % 10.93 C
290 08-09-2019 00:05:00 11.7 C 95 % 10.93 C
291 08-09-2019 00:10:00 11.7 C 95 % 10.93 C
292 08-09-2019 00:15:00 11.7 C 95 % 10.93 C
293 08-09-2019 00:20:00 11.7 C 95 % 10.93 C
294 08-09-2019 00:25:00 11.7 C 95 % 10.93 C
295 08-09-2019 00:30:00 11.7 C 95 % 10.93 C
296 08-09-2019 00:35:00 11.7 C 95 % 10.93 C
297 08-09-2019 00:40:00 11.7 C 95 % 10.93 C
298 08-09-2019 00:45:00 11.7 C 95 % 10.93 C
299 08-09-2019 00:50:00 11.7 C 95 % 10.93 C
300 08-09-2019 00:55:00 11.7 C 95 % 10.93 C
Sensor: Nr:Datum:Temp:Feuchte:Taupunkt:
Aussen-T/F 301 08-09-2019 01:00:00 11.7 C 95 % 10.93 C
302 08-09-2019 01:05:00 11.8 C 95 % 11.03 C
303 08-09-2019 01:10:00 11.8 C 96 % 11.18 C
304 08-09-2019 01:15:00 11.8 C 96 % 11.18 C
305 08-09-2019 01:20:00 11.8 C 96 % 11.18 C
306 08-09-2019 01:25:00 11.8 C 96 % 11.18 C
307 08-09-2019 01:30:00 11.8 C 96 % 11.18 C
308 08-09-2019 01:35:00 11.8 C 96 % 11.18 C
309 08-09-2019 01:40:00 11.8 C 96 % 11.18 C
310 08-09-2019 01:45:00 11.7 C 95 % 10.93 C
311 08-09-2019 01:50:00 11.7 C 95 % 10.93 C
312 08-09-2019 01:55:00 11.6 C 96 % 10.98 C
313 08-09-2019 02:00:00 11.6 C 96 % 10.98 C
314 08-09-2019 02:05:00 11.5 C 95 % 10.73 C
315 08-09-2019 02:10:00 11.4 C 95 % 10.63 C
316 08-09-2019 02:15:00 11.4 C 95 % 10.63 C
317 08-09-2019 02:20:00 11.3 C 95 % 10.53 C
318 08-09-2019 02:25:00 11.3 C 95 % 10.53 C
319 08-09-2019 02:30:00 11.3 C 96 % 10.69 C
320 08-09-2019 02:35:00 11.2 C 96 % 10.59 C
321 08-09-2019 02:40:00 11.2 C 96 % 10.59 C
322 08-09-2019 02:45:00 11.1 C 95 % 10.33 C
323 08-09-2019 02:50:00 11.1 C 96 % 10.49 C
324 08-09-2019 02:55:00 11.1 C 96 % 10.49 C
325 08-09-2019 03:00:00 11.1 C 96 % 10.49 C
Sensor: Nr:Datum:Temp:Feuchte:Taupunkt:
Aussen-T/F 326 08-09-2019 03:05:00 11.1 C 96 % 10.49 C
327 08-09-2019 03:10:00 11.2 C 96 % 10.59 C
328 08-09-2019 03:15:00 11.2 C 96 % 10.59 C
329 08-09-2019 03:20:00 11.3 C 96 % 10.69 C
330 08-09-2019 03:25:00 11.3 C 96 % 10.69 C
331 08-09-2019 03:30:00 11.3 C 96 % 10.69 C
332 08-09-2019 03:35:00 11.4 C 96 % 10.79 C
333 08-09-2019 03:40:00 11.4 C 96 % 10.79 C
334 08-09-2019 03:45:00 11.4 C 96 % 10.79 C
335 08-09-2019 03:50:00 11.4 C 96 % 10.79 C
336 08-09-2019 03:55:00 11.5 C 96 % 10.88 C
337 08-09-2019 04:00:00 11.5 C 96 % 10.88 C
338 08-09-2019 04:05:00 11.5 C 96 % 10.88 C
339 08-09-2019 04:10:00 11.5 C 96 % 10.88 C
340 08-09-2019 04:15:00 11.6 C 96 % 10.98 C
341 08-09-2019 04:20:00 11.7 C 96 % 11.08 C
342 08-09-2019 04:25:00 11.7 C 97 % 11.24 C
343 08-09-2019 04:30:00 11.7 C 97 % 11.24 C
344 08-09-2019 04:35:00 11.8 C 97 % 11.34 C
345 08-09-2019 04:40:00 11.8 C 97 % 11.34 C
346 08-09-2019 04:45:00 11.8 C 96 % 11.18 C
347 08-09-2019 04:50:00 11.9 C 96 % 11.28 C
348 08-09-2019 04:55:00 11.9 C 96 % 11.28 C
349 08-09-2019 05:00:00 11.9 C 96 % 11.28 C
350 08-09-2019 05:05:00 11.9 C 96 % 11.28 C
Sensor: Nr:Datum:Temp:Feuchte:Taupunkt:
Aussen-T/F 351 08-09-2019 05:10:00 11.9 C 96 % 11.28 C
352 08-09-2019 05:15:00 11.9 C 96 % 11.28 C
353 08-09-2019 05:20:00 11.9 C 96 % 11.28 C
354 08-09-2019 05:25:00 11.9 C 96 % 11.28 C
355 08-09-2019 05:30:00 11.9 C 96 % 11.28 C
356 08-09-2019 05:35:00 11.9 C 96 % 11.28 C
357 08-09-2019 05:40:00 11.9 C 96 % 11.28 C
358 08-09-2019 05:45:00 11.9 C 96 % 11.28 C
359 08-09-2019 05:50:00 11.9 C 96 % 11.28 C
360 08-09-2019 05:55:00 12 C 96 % 11.38 C
361 08-09-2019 06:00:00 12 C 96 % 11.38 C
362 08-09-2019 06:05:00 12 C 96 % 11.38 C
363 08-09-2019 06:10:00 12 C 96 % 11.38 C
364 08-09-2019 06:15:00 12.1 C 97 % 11.64 C
365 08-09-2019 06:20:00 12.1 C 97 % 11.64 C
366 08-09-2019 06:25:00 12.1 C 97 % 11.64 C
367 08-09-2019 06:30:00 12.1 C 97 % 11.64 C
368 08-09-2019 06:35:00 12.1 C 97 % 11.64 C
369 08-09-2019 06:40:00 12.1 C 97 % 11.64 C
370 08-09-2019 06:45:00 12.1 C 97 % 11.64 C
371 08-09-2019 06:50:00 12.1 C 97 % 11.64 C
372 08-09-2019 06:55:00 12.1 C 97 % 11.64 C
373 08-09-2019 07:00:00 12.1 C 97 % 11.64 C
374 08-09-2019 07:05:00 12.1 C 97 % 11.64 C
375 08-09-2019 07:10:00 12.2 C 97 % 11.74 C
Sensor: Nr:Datum:Temp:Feuchte:Taupunkt:
Aussen-T/F 376 08-09-2019 07:15:00 12.2 C 97 % 11.74 C
377 08-09-2019 07:20:00 12.2 C 97 % 11.74 C
378 08-09-2019 07:25:00 12.2 C 96 % 11.58 C
379 08-09-2019 07:30:00 12.2 C 96 % 11.58 C
380 08-09-2019 07:35:00 12.2 C 96 % 11.58 C
381 08-09-2019 07:40:00 12.2 C 96 % 11.58 C
382 08-09-2019 07:45:00 12.3 C 96 % 11.68 C
383 08-09-2019 07:50:00 12.3 C 96 % 11.68 C
384 08-09-2019 07:55:00 12.3 C 96 % 11.68 C
385 08-09-2019 08:00:00 12.3 C 96 % 11.68 C
386 08-09-2019 08:05:00 12.3 C 96 % 11.68 C
387 08-09-2019 08:10:00 12.3 C 96 % 11.68 C
388 08-09-2019 08:15:00 12.3 C 96 % 11.68 C
389 08-09-2019 08:20:00 12.3 C 96 % 11.68 C
390 08-09-2019 08:25:00 12.3 C 96 % 11.68 C
391 08-09-2019 08:30:00 12.3 C 96 % 11.68 C
392 08-09-2019 08:35:00 12.3 C 96 % 11.68 C
393 08-09-2019 08:40:00 12.3 C 96 % 11.68 C
394 08-09-2019 08:45:00 12.3 C 96 % 11.68 C
395 08-09-2019 08:50:00 12.4 C 96 % 11.78 C
396 08-09-2019 08:55:00 12.4 C 96 % 11.78 C
397 08-09-2019 09:00:00 12.4 C 96 % 11.78 C
398 08-09-2019 09:05:00 12.3 C 96 % 11.68 C
399 08-09-2019 09:10:00 12.3 C 96 % 11.68 C
400 08-09-2019 09:15:00 12.3 C 96 % 11.68 C
Sensor: Nr:Datum:Temp:Feuchte:Taupunkt:
Aussen-T/F 401 08-09-2019 09:20:00 12.3 C 96 % 11.68 C
402 08-09-2019 09:25:00 12.3 C 95 % 11.52 C
403 08-09-2019 09:30:00 12.3 C 95 % 11.52 C
404 08-09-2019 09:35:00 12.3 C 95 % 11.52 C
405 08-09-2019 09:40:00 12.3 C 95 % 11.52 C
406 08-09-2019 09:45:00 12.3 C 95 % 11.52 C
407 08-09-2019 09:50:00 12.4 C 95 % 11.62 C
408 08-09-2019 09:55:00 12.4 C 95 % 11.62 C
409 08-09-2019 10:00:00 12.4 C 95 % 11.62 C
410 08-09-2019 10:05:00 12.5 C 95 % 11.72 C
411 08-09-2019 10:10:00 12.6 C 95 % 11.82 C
412 08-09-2019 10:15:00 12.6 C 95 % 11.82 C
413 08-09-2019 10:20:00 12.6 C 96 % 11.98 C
414 08-09-2019 10:25:00 12.6 C 96 % 11.98 C
415 08-09-2019 10:30:00 12.6 C 96 % 11.98 C
416 08-09-2019 10:35:00 12.6 C 96 % 11.98 C
417 08-09-2019 10:40:00 12.6 C 96 % 11.98 C
418 08-09-2019 10:45:00 12.6 C 96 % 11.98 C
419 08-09-2019 10:50:00 12.6 C 96 % 11.98 C
420 08-09-2019 10:55:00 12.6 C 96 % 11.98 C
421 08-09-2019 11:00:00 12.6 C 96 % 11.98 C
422 08-09-2019 11:05:00 12.6 C 96 % 11.98 C
423 08-09-2019 11:10:00 12.6 C 96 % 11.98 C
424 08-09-2019 11:15:00 12.6 C 96 % 11.98 C
425 08-09-2019 11:20:00 12.6 C 96 % 11.98 C
Sensor: Nr:Datum:Temp:Feuchte:Taupunkt:
Aussen-T/F 426 08-09-2019 11:25:00 12.6 C 96 % 11.98 C
427 08-09-2019 11:30:00 12.6 C 96 % 11.98 C
428 08-09-2019 11:35:00 12.6 C 96 % 11.98 C
429 08-09-2019 11:40:00 12.6 C 96 % 11.98 C
430 08-09-2019 11:45:00 12.7 C 96 % 12.08 C
431 08-09-2019 11:50:00 12.7 C 96 % 12.08 C
432 08-09-2019 11:55:00 12.7 C 96 % 12.08 C
433 08-09-2019 12:00:00 12.7 C 96 % 12.08 C
434 08-09-2019 12:05:00 12.6 C 96 % 11.98 C
435 08-09-2019 12:10:00 12.6 C 96 % 11.98 C
436 08-09-2019 12:15:00 12.7 C 96 % 12.08 C
437 08-09-2019 12:20:00 12.7 C 96 % 12.08 C
438 08-09-2019 12:25:00 12.7 C 96 % 12.08 C
439 08-09-2019 12:30:00 12.8 C 96 % 12.18 C
440 08-09-2019 12:35:00 12.9 C 96 % 12.28 C
441 08-09-2019 12:40:00 12.9 C 96 % 12.28 C
442 08-09-2019 12:45:00 13 C 96 % 12.38 C
443 08-09-2019 12:50:00 13 C 95 % 12.22 C
444 08-09-2019 12:55:00 13.2 C 95 % 12.42 C
445 08-09-2019 13:00:00 13.3 C 95 % 12.52 C
446 08-09-2019 13:05:00 13.4 C 95 % 12.62 C
447 08-09-2019 13:10:00 13.6 C 95 % 12.81 C
448 08-09-2019 13:15:00 13.7 C 94 % 12.75 C
449 08-09-2019 13:20:00 13.8 C 94 % 12.85 C
450 08-09-2019 13:25:00 13.8 C 93 % 12.69 C
Sensor: Nr:Datum:Temp:Feuchte:Taupunkt:
Aussen-T/F 451 08-09-2019 13:30:00 14 C 93 % 12.89 C
452 08-09-2019 13:35:00 14.3 C 94 % 13.35 C
453 08-09-2019 13:40:00 14.3 C 93 % 13.18 C
454 08-09-2019 13:45:00 14.3 C 93 % 13.18 C
455 08-09-2019 13:50:00 14.4 C 92 % 13.12 C
456 08-09-2019 13:55:00 14.4 C 91 % 12.95 C
457 08-09-2019 14:00:00 14.4 C 90 % 12.78 C
458 08-09-2019 14:05:00 14.6 C 91 % 13.15 C
459 08-09-2019 14:10:00 14.7 C 90 % 13.08 C
460 08-09-2019 14:15:00 14.7 C 90 % 13.08 C
461 08-09-2019 14:20:00 14.8 C 89 % 13.01 C
462 08-09-2019 14:25:00 14.8 C 88 % 12.83 C
463 08-09-2019 14:30:00 14.8 C 87 % 12.66 C
464 08-09-2019 14:35:00 15 C 89 % 13.2 C
465 08-09-2019 14:40:00 15.1 C 87 % 12.95 C
466 08-09-2019 14:45:00 15.2 C 88 % 13.23 C
467 08-09-2019 14:50:00 15.2 C 85 % 12.7 C
468 08-09-2019 14:55:00 15.2 C 86 % 12.88 C
469 08-09-2019 15:00:00 15.3 C 86 % 12.97 C
470 08-09-2019 15:05:00 15.3 C 85 % 12.79 C
471 08-09-2019 15:10:00 15.3 C 83 % 12.43 C
472 08-09-2019 15:15:00 15.5 C 84 % 12.81 C
473 08-09-2019 15:20:00 15.7 C 85 % 13.19 C
474 08-09-2019 15:25:00 15.9 C 85 % 13.38 C
475 08-09-2019 15:30:00 15.9 C 83 % 13.02 C
Sensor: Nr:Datum:Temp:Feuchte:Taupunkt:
Aussen-T/F 476 08-09-2019 15:35:00 15.9 C 82 % 12.83 C
477 08-09-2019 15:40:00 15.9 C 84 % 13.2 C
478 08-09-2019 15:45:00 16 C 85 % 13.48 C
479 08-09-2019 15:50:00 16 C 85 % 13.48 C
480 08-09-2019 15:55:00 16.1 C 82 % 13.03 C
481 08-09-2019 16:00:00 16.1 C 80 % 12.65 C
482 08-09-2019 16:05:00 16.2 C 80 % 12.75 C
483 08-09-2019 16:10:00 16.2 C 80 % 12.75 C
484 08-09-2019 16:15:00 16.1 C 83 % 13.21 C
485 08-09-2019 16:20:00 16.2 C 85 % 13.68 C
486 08-09-2019 16:25:00 16.1 C 86 % 13.76 C
487 08-09-2019 16:30:00 16 C 86 % 13.66 C
488 08-09-2019 16:35:00 15.8 C 87 % 13.64 C
489 08-09-2019 16:40:00 15.4 C 87 % 13.25 C
490 08-09-2019 16:45:00 14.9 C 87 % 12.76 C
491 08-09-2019 16:50:00 14.6 C 88 % 12.64 C
492 08-09-2019 16:55:00 14.3 C 89 % 12.51 C
493 08-09-2019 17:00:00 14.2 C 90 % 12.58 C
494 08-09-2019 17:05:00 14 C 91 % 12.56 C
495 08-09-2019 17:10:00 13.8 C 91 % 12.36 C
496 08-09-2019 17:15:00 13.6 C 92 % 12.33 C
497 08-09-2019 17:20:00 13.4 C 92 % 12.13 C
498 08-09-2019 17:25:00 13.3 C 93 % 12.19 C
499 08-09-2019 17:30:00 13.3 C 93 % 12.19 C
500 08-09-2019 17:35:00 13.2 C 94 % 12.26 C
Sensor: Nr:Datum:Temp:Feuchte:Taupunkt:
Aussen-T/F 501 08-09-2019 17:40:00 13.3 C 94 % 12.36 C
502 08-09-2019 17:45:00 13.3 C 94 % 12.36 C
503 08-09-2019 17:50:00 13.3 C 94 % 12.36 C
504 08-09-2019 17:55:00 13.2 C 94 % 12.26 C
505 08-09-2019 18:00:00 13 C 93 % 11.9 C
506 08-09-2019 18:05:00 12.9 C 94 % 11.96 C
507 08-09-2019 18:10:00 12.9 C 94 % 11.96 C
508 08-09-2019 18:15:00 12.9 C 94 % 11.96 C
509 08-09-2019 18:20:00 12.8 C 94 % 11.86 C
510 08-09-2019 18:25:00 12.8 C 94 % 11.86 C
511 08-09-2019 18:30:00 12.8 C 94 % 11.86 C
512 08-09-2019 18:35:00 12.7 C 94 % 11.76 C
513 08-09-2019 18:40:00 12.7 C 95 % 11.92 C
514 08-09-2019 18:45:00 12.7 C 95 % 11.92 C
515 08-09-2019 18:50:00 12.7 C 95 % 11.92 C
516 08-09-2019 18:55:00 12.7 C 95 % 11.92 C
517 08-09-2019 19:00:00 12.7 C 95 % 11.92 C
518 08-09-2019 19:05:00 12.7 C 95 % 11.92 C
519 08-09-2019 19:10:00 12.7 C 95 % 11.92 C
520 08-09-2019 19:15:00 12.8 C 95 % 12.02 C
521 08-09-2019 19:20:00 12.9 C 96 % 12.28 C
522 08-09-2019 19:25:00 13 C 96 % 12.38 C
523 08-09-2019 19:30:00 13.1 C 96 % 12.48 C
524 08-09-2019 19:35:00 13.2 C 96 % 12.58 C
525 08-09-2019 19:40:00 13.2 C 96 % 12.58 C
Sensor: Nr:Datum:Temp:Feuchte:Taupunkt:
Aussen-T/F 526 08-09-2019 19:45:00 13.2 C 95 % 12.42 C
527 08-09-2019 19:50:00 13.1 C 95 % 12.32 C
528 08-09-2019 19:55:00 13 C 95 % 12.22 C
529 08-09-2019 20:00:00 12.9 C 95 % 12.12 C
530 08-09-2019 20:05:00 12.9 C 95 % 12.12 C
531 08-09-2019 20:10:00 12.9 C 96 % 12.28 C
532 08-09-2019 20:15:00 12.8 C 95 % 12.02 C
533 08-09-2019 20:20:00 12.7 C 95 % 11.92 C
534 08-09-2019 20:25:00 12.6 C 95 % 11.82 C
535 08-09-2019 20:30:00 12.5 C 95 % 11.72 C
536 08-09-2019 20:35:00 12.4 C 95 % 11.62 C
537 08-09-2019 20:40:00 12.4 C 95 % 11.62 C
538 08-09-2019 20:45:00 12.3 C 95 % 11.52 C
539 08-09-2019 20:50:00 12.2 C 95 % 11.42 C
540 08-09-2019 20:55:00 12.2 C 95 % 11.42 C
541 08-09-2019 21:00:00 12.2 C 95 % 11.42 C
542 08-09-2019 21:05:00 12.2 C 95 % 11.42 C
543 08-09-2019 21:10:00 12.1 C 95 % 11.32 C
544 08-09-2019 21:15:00 12.1 C 95 % 11.32 C
545 08-09-2019 21:20:00 12.1 C 95 % 11.32 C
546 08-09-2019 21:25:00 12.1 C 95 % 11.32 C
547 08-09-2019 21:30:00 12 C 95 % 11.22 C
548 08-09-2019 21:35:00 12.1 C 96 % 11.48 C
549 08-09-2019 21:40:00 12.1 C 96 % 11.48 C
550 08-09-2019 21:45:00 12.1 C 96 % 11.48 C
Sensor: Nr:Datum:Temp:Feuchte:Taupunkt:
Aussen-T/F 551 08-09-2019 21:50:00 12.1 C 96 % 11.48 C
552 08-09-2019 21:55:00 12 C 96 % 11.38 C
553 08-09-2019 22:00:00 11.9 C 96 % 11.28 C
554 08-09-2019 22:05:00 11.9 C 96 % 11.28 C
555 08-09-2019 22:10:00 11.8 C 96 % 11.18 C
556 08-09-2019 22:15:00 11.8 C 96 % 11.18 C
557 08-09-2019 22:20:00 11.8 C 96 % 11.18 C
558 08-09-2019 22:25:00 11.8 C 96 % 11.18 C
559 08-09-2019 22:30:00 11.8 C 96 % 11.18 C
560 08-09-2019 22:35:00 11.8 C 96 % 11.18 C
561 08-09-2019 22:40:00 11.8 C 96 % 11.18 C
562 08-09-2019 22:45:00 11.8 C 96 % 11.18 C
563 08-09-2019 22:50:00 11.8 C 96 % 11.18 C
564 08-09-2019 22:55:00 11.8 C 96 % 11.18 C
565 08-09-2019 23:00:00 11.8 C 96 % 11.18 C
566 08-09-2019 23:05:00 11.8 C 96 % 11.18 C
567 08-09-2019 23:10:00 11.7 C 96 % 11.08 C
568 08-09-2019 23:15:00 11.7 C 96 % 11.08 C
569 08-09-2019 23:20:00 11.7 C 96 % 11.08 C
570 08-09-2019 23:25:00 11.7 C 96 % 11.08 C
571 08-09-2019 23:30:00 11.7 C 96 % 11.08 C
572 08-09-2019 23:35:00 11.7 C 96 % 11.08 C
573 08-09-2019 23:40:00 11.7 C 96 % 11.08 C
574 08-09-2019 23:45:00 11.7 C 96 % 11.08 C
575 08-09-2019 23:50:00 11.7 C 96 % 11.08 C
Sensor: Nr:Datum:Temp:Feuchte:Taupunkt:
Aussen-T/F 576 08-09-2019 23:55:00 11.7 C 96 % 11.08 C

Legende:
   Min
   Max


Maximal/Minimal-Werte vom 07.09.2019 - 08.09.2019

Sensor Min Max Avg
Temp
(Aussen-T/F)
11.1 °C
08-09-2019  02:45:00
16.2 °C
08-09-2019  16:05:00
12.82 °C
Feuchte
(Aussen-T/F)
73 %
07-09-2019  00:05:00
97 %
08-09-2019  04:25:00
90.54 %
Taupunkt
(Aussen-T/F)
7.51 C
07-09-2019  00:20:00
14.33 C
07-09-2019  17:15:00
11.24 C

Die Daten stammen von einer Davis Vantage Pro 2 Wetter-Station und werden unter Linux mit der Software wview2wettercgi und aufbereitet. Alle Angaben erfolgen ohne Gewähr für ihre Vollständigkeit oder Richtigkeit.
Kontakt: Rainer Krienke krienke@uni-koblenz.de . Meine Webseiten an der Uni Koblenz oder privat.
Version: $Revision: 0.78 $